sat.trackr.live / text

‹ back to catalog

HULIANWANG DIGUI-114

NORAD 66953 · 2025-287A

PAYLOAD ACTIVE UNKNOWN

§ Identity

Operator
Country
PRC
Launch date
2025-12-08
Launch site
TAISC
Launch vehicle
Mass (kg)
RCS (m²)

External: N2YO · Heavens-Above · Gunter

§ Orbital elements

Epoch: 2026-05-25T02:23:26.924352Z

Period
108.73 min
Inclination
86.4915°
Eccentricity
0.0001579
Mean motion
13.24410667 rev/d
Perigee alt
1,166.7 km
Apogee alt
1,169.1 km
Semi-major
7,546.1 km
B*
7.3968e-5
RAAN
290.1707°
Arg perigee
108.3864°
Mean anomaly
251.7442°
Rev number
2,228

§ Raw data

HULIANWANG DIGUI-1141 66953U 25287A   26145.09961718  .00000046  00000+0  73968-4 0  99982 66953  86.4915 290.1707 0001579 108.3864 251.7442 13.24410667 22285

JSON: /api/v1/satellites/66953 · /tle

For live sub-satellite position, see the globe view (requires WebGL).

§ Visibility from observer

Set your observer location to see the next 7 days of passes ≥ 10°. The values pass through the URL so the page stays shareable.

No JS? Fill the form by hand. The geolocation button needs JavaScript.